1497610801.18,36942,18.81,73896.5,8.93,0.29,0.67,0,*7F
1497610802.42,36943,18.81,73896.8,8.93,-0.23,0.29,0,*53
1497610803.61,36944,18.81,73900.0,8.95,0.55,0.97,0,*7B
1497610804.83,36945,18.81,73898.3,8.93,0.55,1.01,0,*42
1497610806.07,36946,18.81,73898.5,8.93,0.83,1.37,0,*4F
1497610807.29,36947,18.75,73892.5,8.95,0.95,1.51,0,*4F
1497610808.5,36948,18.81,73892.8,8.95,0.95,1.51,0,*40
1497610809.7,36949,18.81,73892.8,8.95,1.41,2.01,0,*7F
1497610810.95,36950,18.81,73886.0,8.97,1.85,2.59,0,*70
1497610812.18,36951,18.81,73868.8,8.99,1.93,2.55,0,*74
1497610813.39,36952,18.81,73878.3,8.99,0.71,1.21,0,*4A
1497610814.62,36953,18.81,73894.5,8.99,1.25,1.85,0,*75
1497610815.87,36954,18.81,73898.5,9.01,1.59,2.21,0,*74
1497610817.12,36955,18.75,73884.5,9.01,1.59,2.09,0,*7F
1497610818.33,36956,18.81,73884.0,9.03,0.63,1.17,0,*4A
1497610819.5,36957,18.81,73882.3,9.03,1.05,1.75,0,*7E
1497610820.72,36958,18.81,73884.3,9.03,1.17,1.89,0,*71
1497610821.94,36959,18.81,73896.5,9.03,1.47,2.09,0,*7E
1497610823.2,36960,18.81,73904.8,9.05,1.21,1.97,0,*76
1497610824.41,36961,18.81,73900.5,9.09,0.17,0.83,0,*7B
1497610825.59,36962,18.75,73896.8,9.03,-1.17,-0.65,0,*4B
1497610826.81,36963,18.75,73902.8,9.01,-1.29,-0.69,0,*49
1497610828.07,36964,18.75,73898.5,9.01,-2.47,-1.95,0,*77
1497610829.31,36965,18.81,73880.5,8.97,-2.71,-2.23,0,*73
1497610830.51,36966,18.81,73884.0,8.93,-0.65,0.05,0,*68
1497610831.73,36967,18.81,73890.8,8.93,-0.19,0.55,0,*57
1497610832.92,36968,18.81,73892.0,8.95,-0.45,0.17,0,*51
1497610834.1,36969,18.75,73892.0,8.91,-0.69,-0.19,0,*79
1497610835.32,36970,18.81,73888.5,8.89,-2.31,-1.75,0,*7C
1497610836.53,36971,18.75,73868.5,8.87,-2.99,-2.51,0,*74
1497610837.75,36972,18.81,73848.0,8.79,-2.71,-2.27,0,*71
1497610838.97,36973,18.81,73862.0,8.75,-0.69,0.13,0,*5F
1497610840.22,36974,18.81,73868.0,8.75,-0.23,0.47,0,*57
1497610841.41,36975,18.75,73874.3,8.75,-0.49,0.05,0,*6C
1497610842.63,36976,18.81,73876.8,8.75,-0.37,0.37,0,*57
1497610843.84,36977,18.75,73876.3,8.75,0.01,0.63,0,*4F
1497610845.04,36978,18.81,73884.0,8.75,0.37,0.97,0,*7E
1497610846.28,36979,18.81,73888.3,8.75,0.25,0.87,0,*7D
1497610847.53,36980,18.81,73890.0,8.75,-0.23,0.51,0,*5B
1497610848.75,36981,18.81,73892.3,8.75,0.41,1.01,0,*47
1497610849.99,36982,18.81,73892.8,8.75,0.75,1.33,0,*42
1497610851.23,36983,18.81,73894.0,8.75,0.51,1.09,0,*4C
1497610852.46,36984,18.81,73892.0,8.75,-0.19,0.51,0,*56
1497610853.66,36985,18.81,73896.3,8.73,-0.89,-0.37,0,*75
1497610854.86,36986,18.81,73896.3,8.73,-0.23,0.43,0,*58
1497610856.07,36987,18.75,73892.8,8.71,0.09,0.71,0,*4F
1497610857.29,36988,18.81,73894.5,8.71,-0.45,0.17,0,*55
1497610858.51,36989,18.81,73892.0,8.71,-0.03,0.59,0,*6C
1497610859.72,36990,18.81,73896.0,8.71,-0.41,0.09,0,*67
1497610860.92,36991,18.81,73892.3,8.69,-0.11,0.41,0,*56
1497610862.15,36992,18.81,73894.3,8.69,1.13,1.71,0,*79
1497610863.38,36993,18.81,73890.3,8.69,1.59,2.09,0,*7A
1497610864.62,36994,18.81,73882.3,8.71,0.71,1.29,0,*4E
1497610865.85,36995,18.81,73880.8,8.73,1.37,1.89,0,*74
1497610867.07,36996,18.81,73886.3,8.73,1.47,2.01,0,*73
1497610868.29,36997,18.75,73880.3,8.73,1.47,2.01,0,*72
1497610869.52,36998,18.81,73876.5,8.73,1.71,2.17,0,*7F
1497610870.78,36999,18.81,73874.3,8.77,1.21,1.59,0,*76
1497610872.03,37000,18.81,73876.5,8.75,1.59,2.05,0,*79
1497610873.27,37001,18.81,73874.8,8.79,1.97,2.39,0,*79
1497610874.48,37002,18.81,73876.5,8.79,1.97,2.61,0,*77
1497610875.74,37003,18.81,73880.8,8.81,1.97,2.39,0,*7C
1497610876.99,37004,18.75,73878.5,8.81,1.67,2.13,0,*7C
1497610878.18,37005,18.81,73874.0,8.79,0.63,1.05,0,*4B
1497610879.4,37006,18.81,73874.8,8.81,1.41,1.89,0,*7A
1497610880.62,37007,18.81,73872.0,8.81,1.89,2.35,0,*7B
1497610881.86,37008,18.75,73868.8,8.85,1.79,2.17,0,*7F
1497610883.08,37009,18.81,73880.0,8.87,1.63,2.05,0,*74
1497610884.3,37010,18.81,73884.5,8.87,1.47,1.93,0,*76
1497610885.52,37011,18.81,73890.0,8.87,0.91,1.43,0,*40
1497610886.73,37012,18.81,73892.3,8.87,1.21,1.75,0,*7C
1497610887.96,37013,18.81,73898.8,8.87,1.09,1.37,0,*71
1497610889.17,37014,18.81,73898.0,8.87,0.29,0.63,0,*75
1497610890.37,37015,18.81,73890.8,8.85,0.01,0.33,0,*49
1497610891.6,37016,18.81,73888.5,8.81,0.63,0.95,0,*76
1497610892.86,37017,18.81,73886.5,8.81,0.91,1.37,0,*43
1497610894.11,37018,18.81,73876.0,8.81,0.51,0.91,0,*7D
1497610895.33,37019,18.81,73884.5,8.79,0.51,0.91,0,*7B
1497610896.53,37020,18.81,73884.5,8.79,-0.15,0.21,0,*57
1497610897.76,37021,18.81,73880.5,8.77,-0.27,0.05,0,*6F
1497610898.96,37022,18.81,73880.3,8.75,-0.33,-0.07,0,*44
1497610900.18,37023,18.75,73876.3,8.75,-0.19,0.17,0,*51
1497610901.4,37024,18.81,73880.8,8.71,-0.15,0.17,0,*5E
1497610902.61,37025,18.81,73882.3,8.71,0.05,0.29,0,*4E
1497610903.82,37026,18.81,73884.0,8.71,-0.03,0.33,0,*6D
1497610905.03,37027,18.75,73884.3,8.67,0.01,0.25,0,*43
1497610906.27,37028,18.81,73888.0,8.67,0.25,0.41,0,*78
1497610907.51,37029,18.75,73886.3,8.67,0.41,0.55,0,*7E
1497610908.76,37030,18.75,73880.5,8.67,0.63,0.91,0,*7E
1497610909.98,37031,18.75,73874.0,8.65,0.51,0.75,0,*76
1497610911.24,37032,18.81,73868.0,8.67,1.13,1.47,0,*70
1497610912.46,37033,18.81,73862.3,8.65,0.95,1.21,0,*4C
1497610913.67,37034,18.81,73856.0,8.65,-0.11,0.21,0,*5B
1497610914.93,37035,18.81,73852.5,8.63,1.09,1.55,0,*7B
1497610916.18,37036,18.81,73850.8,8.63,1.43,1.71,0,*70
1497610917.39,37037,18.81,73862.8,8.65,1.83,2.17,0,*78
1497610918.62,37038,18.81,73874.3,8.65,2.09,2.43,0,*77
1497610919.85,37039,18.75,73874.8,8.67,2.31,2.55,0,*78
1497610921.08,37040,18.81,73874.5,8.67,1.83,2.09,0,*75
1497610922.31,37041,18.81,73882.0,8.69,1.59,1.85,0,*7A
1497610923.54,37042,18.81,73874.8,8.69,0.91,1.13,0,*43
1497610924.73,37043,18.75,73872.8,8.69,0.75,0.97,0,*75
1497610925.97,37044,18.81,73872.0,8.67,0.67,0.91,0,*79
1497610927.21,37045,18.75,73868.8,8.67,0.63,0.87,0,*7B
1497610928.4,37046,18.81,73874.5,8.69,0.75,0.97,0,*70
1497610929.64,37047,18.81,73876.5,8.67,0.47,0.63,0,*75
1497610930.86,37048,18.75,73878.8,8.65,0.47,0.63,0,*78
1497610932.08,37049,18.81,73884.0,8.65,0.59,0.87,0,*7C
1497610933.32,37050,18.81,73886.5,8.63,0.83,0.95,0,*76
1497610934.51,37051,18.81,73884.0,8.65,0.71,0.97,0,*7E
1497610935.75,37052,18.75,73880.0,8.59,0.95,1.13,0,*45
1497610937.02,37053,18.75,73880.8,8.63,1.37,1.55,0,*76
1497610938.25,37054,18.81,73884.5,8.63,1.71,1.83,0,*78
1497610939.47,37055,18.81,73884.5,8.63,2.05,2.27,0,*74
1497610940.71,37056,18.81,73888.0,8.63,2.55,2.61,0,*70
1497610941.92,37057,18.81,73896.3,8.65,2.27,2.43,0,*72
1497610943.18,37058,18.81,73896.8,8.67,2.01,2.13,0,*7E
1497610944.41,37059,18.81,73892.5,8.69,2.43,2.47,0,*76
1497610945.64,37060,18.81,73888.5,8.69,1.97,2.01,0,*74
1497610946.85,37061,18.81,73888.8,8.69,1.75,1.85,0,*76
1497610948.05,37062,18.81,73884.8,8.69,2.35,2.47,0,*7F
1497610949.29,37063,18.75,73882.0,8.69,1.71,1.85,0,*70
1497610950.52,37064,18.75,73880.0,8.71,2.35,2.51,0,*77
1497610951.77,37065,18.81,73880.0,8.71,2.13,2.17,0,*70
1497610952.98,37066,18.81,73884.5,8.73,2.31,2.43,0,*70
1497610954.2,37067,18.81,73886.5,8.73,2.43,2.55,0,*73
1497610955.43,37068,18.81,73888.0,8.73,2.05,2.17,0,*78
1497610956.66,37069,18.81,73894.5,8.73,1.29,1.29,0,*7A
1497610957.89,37070,18.81,73892.3,8.73,1.21,1.29,0,*7A
1497610959.15,37071,18.81,73892.0,8.71,1.13,1.13,0,*71
1497610960.38,37072,18.81,73898.3,8.73,1.37,1.43,0,*73
1497610961.62,37073,18.81,73894.5,8.71,0.55,0.67,0,*72
1497610962.86,37074,18.75,73888.5,8.71,0.21,0.21,0,*74
1497610964.08,37075,18.75,73892.5,8.69,0.47,0.47,0,*7C
1497610965.31,37076,18.81,73904.3,8.69,0.55,0.55,0,*7F
1497610966.55,37077,18.81,73902.5,8.67,0.51,0.63,0,*71
1497610967.77,37078,18.75,73902.8,8.67,0.05,0.17,0,*4C
1497610968.96,37079,18.81,73898.3,8.63,-0.03,0.01,0,*55
1497610970.2,37080,18.75,73894.5,8.63,0.63,0.63,0,*7C
1497610971.41,37081,18.81,73898.3,8.57,0.63,0.63,0,*7A
1497610972.65,37082,18.75,73894.0,8.59,0.71,0.79,0,*7F
1497610973.9,37083,18.81,73890.3,8.59,0.79,0.71,0,*7E
1497610975.13,37084,18.81,73888.8,8.59,0.67,0.67,0,*71
1497610976.32,37085,18.81,73890.5,8.57,0.43,0.37,0,*7D
1497610977.53,37086,18.81,73884.8,8.57,0.63,0.67,0,*79
1497610978.77,37087,18.75,73872.5,8.55,0.51,0.51,0,*7E
1497610979.99,37088,18.81,73878.5,8.53,0.63,0.59,0,*7E
1497610981.16,37089,18.81,73882.8,8.53,-0.03,-0.03,0,*76
1497610982.34,37090,18.75,73870.8,8.53,-0.49,-0.61,0,*74
1497610983.55,37091,18.81,73870.8,8.49,-0.19,-0.27,0,*79
1497610984.72,37092,18.75,73864.8,8.49,-0.07,-0.07,0,*77
1497610985.93,37093,18.81,73864.3,8.45,-0.19,-0.23,0,*73
1497610987.1,37094,18.81,73874.8,8.45,-0.07,0.01,0,*56
1497610988.31,37095,18.81,73882.3,8.45,-0.23,-0.19,0,*75
1497610989.5,37096,18.81,73878.8,8.41,0.09,0.05,0,*77
1497610990.69,37097,18.81,73882.8,8.41,0.09,0.09,0,*7A
1497610991.85,37098,18.75,73874.8,8.39,-0.07,-0.03,0,*7E
1497610993.04,37099,18.81,73874.3,8.35,-0.19,-0.19,0,*77
1497610994.25,37100,18.81,73872.5,8.35,0.21,0.17,0,*73
1497610995.48,37101,18.81,73876.3,8.33,0.37,0.37,0,*71
1497610996.72,37102,18.81,73874.3,8.33,0.75,0.83,0,*7B
1497610997.95,37103,18.81,73870.5,8.33,0.63,0.63,0,*73
1497610999.16,37104,18.81,73874.5,8.31,0.51,0.59,0,*7E
1497611000.37,37105,18.75,73880.3,8.31,0.41,0.37,0,*76
1497611001.57,37106,18.81,73876.0,8.31,1.01,1.09,0,*7C
1497611002.78,37107,18.75,73878.5,8.31,0.37,0.37,0,*75
1497611004.0,37108,18.81,73874.3,8.31,0.83,0.91,0,*79
1497611005.25,37109,18.81,73876.3,8.29,1.29,1.43,0,*7E
1497611006.47,37110,18.75,73878.0,8.31,2.09,2.21,0,*79
1497611007.69,37111,18.81,73892.8,8.31,1.63,1.63,0,*72
1497611008.95,37112,18.75,73888.0,8.33,-0.85,-1.01,0,*4E
1497611010.18,37113,18.75,73886.0,8.33,0.25,0.29,0,*7E
1497611011.38,37114,18.75,73884.5,8.29,-0.15,-0.03,0,*49
1497611012.6,37115,18.81,73886.8,8.29,0.09,0.21,0,*45
1497611013.83,37116,18.81,73882.5,8.29,1.05,1.17,0,*7F
1497611015.07,37117,18.81,73882.0,8.29,1.67,1.71,0,*7A
1497611016.31,37118,18.81,73884.8,8.29,1.59,1.71,0,*78
1497611017.53,37119,18.81,73876.8,8.31,2.21,2.47,0,*7A
1497611018.75,37120,18.81,73868.8,8.31,1.43,1.47,0,*74
1497611019.95,37121,18.81,73886.5,8.31,1.75,1.85,0,*7E
1497611021.16,37122,18.81,73886.5,8.31,1.51,1.43,0,*71
1497611022.38,37123,18.81,73882.8,8.31,1.43,1.59,0,*78
1497611023.6,37124,18.81,73884.0,8.35,1.51,1.67,0,*75
1497611024.84,37125,18.75,73878.0,8.33,0.83,0.87,0,*73
1497611026.08,37126,18.75,73882.0,8.33,1.59,1.71,0,*7E
1497611027.33,37127,18.81,73880.5,8.33,2.05,2.09,0,*79
1497611028.51,37128,18.81,73886.5,8.35,2.35,2.61,0,*7D
1497611029.71,37129,18.81,73886.0,8.35,2.35,2.43,0,*7C
1497611030.94,37130,18.75,73890.3,8.39,1.93,2.17,0,*76
1497611032.19,37131,18.81,73904.3,8.41,1.55,1.67,0,*76
1497611033.4,37132,18.81,73892.3,8.39,0.71,0.79,0,*73
1497611034.61,37133,18.81,73888.0,8.39,0.79,0.95,0,*78
1497611035.82,37134,18.81,73886.3,8.35,0.51,0.67,0,*74
1497611037.03,37135,18.75,73884.0,8.35,0.41,0.51,0,*71
1497611038.22,37136,18.75,73884.8,8.35,0.29,0.43,0,*7F
1497611039.46,37137,18.81,73884.3,8.33,0.37,0.59,0,*7C
1497611040.67,37138,18.81,73886.8,8.31,0.47,0.59,0,*76
1497611041.91,37139,18.75,73884.3,8.29,0.37,0.59,0,*79
1497611043.12,37140,18.81,73880.5,8.29,0.43,0.55,0,*78
1497611044.36,37141,18.75,73876.3,8.29,0.37,0.37,0,*7E
1497611045.6,37142,18.81,73880.8,8.29,0.25,0.37,0,*7E
1497611046.81,37143,18.81,73874.3,8.29,-0.03,0.13,0,*60
1497611048.02,37144,18.81,73876.0,8.25,0.43,0.63,0,*75
1497611049.25,37145,18.81,73880.0,8.25,0.51,0.67,0,*73
1497611050.44,37146,18.75,73878.3,8.23,-0.03,0.13,0,*6F
1497611051.69,37147,18.75,73876.8,8.21,0.79,0.91,0,*76
1497611052.92,37148,18.75,73878.3,8.23,1.13,1.33,0,*7F
1497611054.14,37149,18.81,73882.3,8.23,1.25,1.51,0,*7F
1497611055.34,37150,18.81,73886.3,8.23,1.43,1.75,0,*71
1497611056.59,37151,18.75,73882.3,8.25,1.85,2.01,0,*7C
1497611057.83,37152,18.75,73878.8,8.25,1.67,1.97,0,*7F
1497611059.05,37153,18.75,73878.0,8.27,1.71,1.93,0,*7F
1497611060.27,37154,18.81,73880.8,8.27,1.71,1.89,0,*73
1497611061.47,37155,18.81,73878.5,8.27,1.83,2.05,0,*78
1497611062.69,37156,18.81,73882.0,8.27,2.39,2.73,0,*78
1497611063.9,37157,18.81,73882.5,8.29,2.65,2.95,0,*76
1497611065.13,37158,18.75,73880.0,8.29,2.27,2.51,0,*77
1497611066.35,37159,18.75,73886.3,8.31,2.39,2.77,0,*74
1497611067.58,37160,18.75,73884.3,8.31,2.47,2.89,0,*76
1497611068.83,37161,18.75,73890.8,8.33,2.21,2.39,0,*7E
1497611070.08,37162,18.75,73886.0,8.33,1.21,1.43,0,*70
1497611071.32,37163,18.75,73878.3,8.33,0.51,0.71,0,*77
1497611072.57,37164,18.75,73882.3,8.33,1.13,1.43,0,*77
1497611073.8,37165,18.81,73880.8,8.33,1.01,1.25,0,*75
1497611075.02,37166,18.81,73872.5,8.31,0.87,1.09,0,*45
1497611076.25,37167,18.81,73876.3,8.29,2.17,2.27,0,*79
1497611077.44,37168,18.75,73870.5,8.31,1.83,2.05,0,*71
1497611078.67,37169,18.81,73866.8,8.31,1.85,2.17,0,*75
1497611079.88,37170,18.81,73882.0,8.31,2.43,2.65,0,*71
1497611081.11,37171,18.81,73884.0,8.33,2.27,2.39,0,*79
1497611082.33,37172,18.81,73884.0,8.33,1.71,1.83,0,*78
1497611083.53,37173,18.81,73888.3,8.31,1.01,1.09,0,*7E
1497611084.73,37174,18.75,73880.8,8.31,0.37,0.41,0,*70
1497611086.0,37175,18.75,73876.8,8.29,-1.35,-1.35,0,*79
1497611087.23,37176,18.75,73870.3,8.25,-1.43,-1.33,0,*71
1497611088.44,37177,18.81,73872.8,8.21,-0.45,-0.33,0,*72
1497611089.68,37178,18.81,73878.5,8.21,1.43,1.59,0,*77
1497611090.91,37179,18.75,73872.0,8.19,1.25,1.21,0,*72
1497611092.15,37180,18.81,73870.0,8.21,0.75,0.87,0,*76
1497611093.38,37181,18.81,73874.3,8.21,0.25,0.37,0,*79
1497611094.63,37182,18.75,73866.0,8.17,0.21,0.37,0,*7B
1497611095.86,37183,18.81,73872.0,8.17,0.67,0.75,0,*7E
1497611097.1,37184,18.81,73880.8,8.17,0.21,0.25,0,*7E
1497611098.35,37185,18.75,73884.8,8.11,-0.93,-1.01,0,*47
1497611099.61,37186,18.75,73878.5,8.11,-1.01,-1.13,0,*7D
1497611100.85,37187,18.81,73876.5,8.07,-1.29,-1.35,0,*75
1497611102.05,37188,18.75,73874.5,8.03,-0.69,-0.65,0,*7F
1497611103.29,37189,18.81,73874.3,8.03,0.17,0.33,0,*74
1497611104.5,37190,18.81,73872.0,8.01,0.51,0.63,0,*79
1497611105.72,37191,18.75,73872.0,8.01,1.59,1.71,0,*73
1497611106.95,37192,18.75,73874.3,7.99,2.05,2.27,0,*74
1497611108.21,37193,18.81,73882.0,8.03,2.17,2.39,0,*75
1497611109.44,37194,18.75,73880.0,8.05,2.17,2.47,0,*7D
1497611110.67,37195,18.75,73884.3,8.05,2.09,2.17,0,*76
1497611111.86,37196,18.75,73884.3,8.05,1.67,1.75,0,*79
1497611113.04,37197,18.81,73884.8,8.05,1.01,1.05,0,*7F
1497611114.28,37198,18.75,73884.5,8.07,0.83,0.87,0,*72
1497611115.49,37199,18.75,73886.8,8.07,0.95,1.05,0,*4F
1497611116.7,37200,18.75,73894.3,8.07,0.09,0.25,0,*4A
1497611117.91,37201,18.81,73892.0,8.03,-0.19,-0.15,0,*7D
1497611119.12,37202,18.75,73888.3,7.99,-0.73,-0.65,0,*79
1497611120.33,37203,18.81,73886.8,7.99,-0.03,0.13,0,*63
1497611121.54,37204,18.75,73882.8,7.97,-0.27,-0.29,0,*78
1497611122.74,37205,18.81,73878.5,7.95,-0.53,-0.53,0,*75
1497611123.95,37206,18.81,73874.5,7.95,-0.53,-0.45,0,*71
1497611125.17,37207,18.75,73870.3,7.93,0.17,0.29,0,*7C
1497611126.37,37208,18.81,73872.0,7.89,1.29,1.41,0,*7B
1497611127.58,37209,18.75,73872.3,7.93,2.27,2.59,0,*76
1497611128.8,37210,18.75,73884.5,7.93,2.47,2.61,0,*73
1497611130.05,37211,18.75,73868.3,7.95,2.17,2.25,0,*71
1497611131.28,37212,18.75,73870.5,7.97,2.21,2.39,0,*78
1497611132.49,37213,18.75,73890.0,7.97,2.09,2.27,0,*7C
1497611133.71,37214,18.75,73886.3,7.97,1.47,1.55,0,*74
1497611134.95,37215,18.81,73882.0,7.99,0.25,0.25,0,*78
1497611136.17,37216,18.75,73878.8,7.97,0.71,0.83,0,*78
1497611137.41,37217,18.75,73876.8,7.95,0.59,0.67,0,*7B
1497611138.64,37218,18.81,73876.0,7.95,0.33,0.41,0,*7C
1497611139.85,37219,18.81,73878.0,7.93,0.17,0.29,0,*73
1497611141.02,37220,18.75,73872.8,7.89,0.01,0.05,0,*7B
1497611142.19,37221,18.75,73872.0,7.89,-0.11,0.01,0,*62
1497611143.4,37222,18.75,73874.5,7.89,0.67,0.79,0,*72
1497611144.61,37223,18.75,73876.5,7.89,1.37,1.41,0,*7D
1497611145.84,37224,18.75,73884.5,7.89,1.51,1.51,0,*7B
1497611147.04,37225,18.75,73886.0,7.87,0.97,1.05,0,*4E
1497611148.3,37226,18.81,73882.8,7.87,1.25,1.33,0,*70
1497611149.57,37227,18.75,73884.5,7.87,1.21,1.33,0,*75
1497611150.83,37228,18.81,73886.3,7.87,1.37,1.47,0,*7E
1497611152.08,37229,18.75,73886.0,7.87,0.75,0.87,0,*75
1497611153.32,37230,18.75,73886.5,7.87,0.83,0.95,0,*77
1497611154.55,37231,18.75,73882.8,7.87,1.79,1.89,0,*7E
1497611155.78,37232,18.81,73880.0,7.87,1.71,1.83,0,*7F
1497611157.04,37233,18.81,73882.8,7.87,1.55,1.59,0,*7F
1497611158.22,37234,18.75,73878.8,7.89,1.75,1.83,0,*73
1497611159.4,37235,18.75,73868.3,7.89,0.97,1.01,0,*45
1497611160.59,37236,18.75,73874.3,7.89,0.43,0.51,0,*7B
1497611161.83,37237,18.75,73876.3,7.87,0.47,0.63,0,*71
1497611163.08,37238,18.81,73868.8,7.87,0.59,0.63,0,*71
1497611164.31,37239,18.75,73862.0,7.85,1.37,1.67,0,*7E
1497611165.54,37240,18.75,73860.8,7.85,1.59,1.67,0,*78
1497611166.77,37241,18.81,73862.3,7.87,1.71,1.79,0,*7E
1497611168.04,37242,18.75,73858.5,7.87,2.17,2.51,0,*77
1497611169.28,37243,18.81,73864.3,7.87,2.17,2.31,0,*70
1497611170.49,37244,18.75,73858.8,7.93,2.35,2.51,0,*74
1497611171.73,37245,18.75,73864.5,7.93,2.17,2.39,0,*7B
1497611172.93,37246,18.75,73870.0,7.93,2.13,2.35,0,*70
1497611174.15,37247,18.75,73872.0,7.93,0.83,0.83,0,*75
1497611175.34,37248,18.81,73880.3,7.89,0.43,0.63,0,*73
1497611176.55,37249,18.81,73872.3,7.89,0.17,0.37,0,*72
1497611177.77,37250,18.75,73872.5,7.85,0.33,0.41,0,*71
1497611178.99,37251,18.75,73868.8,7.85,0.13,0.21,0,*74
1497611180.19,37252,18.75,73868.3,7.85,1.05,1.09,0,*7A
1497611181.42,37253,18.75,73864.3,7.83,1.63,1.79,0,*7A
1497611182.67,37254,18.75,73878.3,7.83,2.25,2.47,0,*72
1497611183.88,37255,18.81,73880.5,7.85,1.83,1.97,0,*74
1497611185.09,37256,18.81,73872.5,7.85,0.59,0.71,0,*78
1497611186.33,37257,18.75,73868.3,7.85,1.37,1.47,0,*74
1497611187.53,37258,18.75,73862.5,7.85,1.59,1.79,0,*7E
1497611188.8,37259,18.75,73842.3,7.87,1.93,2.17,0,*70
1497611190.01,37260,18.81,73856.3,7.85,2.31,2.43,0,*72
1497611191.24,37261,18.75,73856.0,7.87,2.05,2.27,0,*74
1497611192.49,37262,18.75,73866.0,7.87,1.59,1.67,0,*7A
1497611193.71,37263,18.75,73876.5,7.87,2.05,2.31,0,*71
1497611194.97,37264,18.75,73864.5,7.87,2.21,2.39,0,*78
1497611196.17,37265,18.75,73866.8,7.89,2.09,2.31,0,*75
1497611197.38,37266,18.75,73870.8,7.89,1.75,1.85,0,*72
1497611198.58,37267,18.75,73868.8,7.89,1.59,1.75,0,*72
1497611199.81,37268,18.81,73872.5,7.89,1.59,1.63,0,*7A
1497611201.02,37269,18.75,73878.8,7.93,1.29,1.41,0,*77
1497611202.22,37270,18.75,73880.3,7.89,1.71,1.75,0,*7E
1497611203.4,37271,18.81,73884.3,7.85,-0.03,0.01,0,*58
1497611204.62,37272,18.75,73876.5,7.85,0.41,0.51,0,*75
1497611205.83,37273,18.75,73874.5,7.85,0.75,0.87,0,*78
1497611207.07,37274,18.81,73876.3,7.83,0.59,0.79,0,*76
1497611208.31,37275,18.75,73876.0,7.83,0.71,0.83,0,*78
1497611209.55,37276,18.75,73878.3,7.83,0.71,0.79,0,*7E
1497611210.77,37277,18.75,73874.3,7.81,0.47,0.59,0,*7A
1497611212.02,37278,18.75,73866.3,7.77,0.51,0.63,0,*72
1497611213.21,37279,18.75,73864.3,7.77,0.09,0.09,0,*72
1497611214.41,37280,18.75,73870.8,7.77,-0.15,-0.03,0,*43
1497611215.58,37281,18.75,73868.3,7.75,-0.61,-0.53,0,*76
1497611216.82,37282,18.75,73872.5,7.71,-1.39,-1.43,0,*7D
1497611218.03,37283,18.81,73868.5,7.67,-1.55,-1.47,0,*75
1497611219.3,37284,18.75,73864.5,7.61,-2.63,-2.67,0,*73
1497611220.55,37285,18.75,73860.5,7.55,-2.07,-2.07,0,*71
1497611221.74,37286,18.75,73862.8,7.51,-2.15,-2.15,0,*76
1497611222.95,37287,18.75,73868.0,7.51,0.13,0.13,0,*77
1497611224.2,37288,18.75,73868.5,7.49,0.83,0.91,0,*72
1497611225.45,37289,18.75,73860.5,7.49,1.51,1.67,0,*75
1497611226.68,37290,18.75,73874.8,7.49,1.75,1.97,0,*74
1497611227.88,37291,18.75,73872.8,7.51,1.79,1.89,0,*7F
1497611229.13,37292,18.75,73874.3,7.53,1.71,1.71,0,*71
1497611230.35,37293,18.75,73874.0,7.51,1.59,1.67,0,*7F
1497611231.62,37294,18.81,73864.3,7.53,1.33,1.33,0,*77
1497611232.85,37295,18.75,73872.5,7.51,1.17,1.09,0,*7B
1497611234.07,37296,18.75,73874.5,7.53,0.05,0.25,0,*47
1497611235.31,37297,18.75,73872.5,7.53,-0.73,-0.89,0,*71
1497611236.54,37298,18.81,73870.3,7.49,0.33,0.33,0,*70
1497611237.79,37299,18.81,73876.5,7.47,1.47,1.47,0,*7F
1497611239.02,37300,18.81,73872.3,7.47,0.63,0.63,0,*7E
1497611240.23,37301,18.75,73874.5,7.47,-0.41,-0.41,0,*7F
1497611241.44,37302,18.75,73870.8,7.47,-0.77,-0.77,0,*7C
1497611242.6,37303,18.75,73868.5,7.41,0.01,-0.07,0,*50
1497611243.8,37304,18.75,73868.8,7.41,0.29,0.25,0,*70
1497611245.02,37305,18.75,73860.3,7.39,-0.37,-0.41,0,*73
1497611246.28,37306,18.75,73872.0,7.39,1.09,1.09,0,*71
1497611247.5,37307,18.75,73874.5,7.37,1.51,1.51,0,*7E
1497611248.73,37308,18.75,73878.3,7.37,0.91,0.71,0,*7F
1497611249.94,37309,18.81,73876.8,7.37,0.29,0.29,0,*70
1497611251.12,37310,18.75,73876.8,7.37,-0.29,-0.29,0,*78
1497611252.3,37311,18.75,73870.3,7.33,-0.49,-0.49,0,*7D
1497611253.53,37312,18.75,73872.8,7.33,0.91,1.13,0,*45
1497611254.77,37313,18.75,73872.3,7.35,0.83,0.79,0,*7C
1497611255.99,37314,18.75,73880.5,7.33,0.25,0.13,0,*7D
1497611257.17,37315,18.81,73880.0,7.33,-0.07,-0.11,0,*4E
1497611258.35,37316,18.75,73880.0,7.29,-0.29,-0.29,0,*71
1497611259.51,37317,18.75,73880.8,7.29,0.01,-0.03,0,*5F
1497611260.69,37318,18.75,73872.0,7.29,-0.53,-0.53,0,*7F
1497611261.87,37319,18.75,73876.0,7.25,-0.77,-0.77,0,*72
1497611263.04,37320,18.81,73884.5,7.25,0.05,0.05,0,*78
1497611264.25,37321,18.75,73872.0,7.19,-2.79,-2.99,0,*78
1497611265.47,37322,18.75,73876.3,7.15,-2.83,-3.03,0,*70
1497611266.67,37323,18.75,73874.0,7.11,-0.73,-0.81,0,*71
1497611267.86,37324,18.75,73878.0,7.09,-1.63,-1.71,0,*71
1497611269.1,37325,18.75,73880.3,7.07,-2.71,-2.87,0,*74
1497611270.34,37326,18.81,73882.3,6.99,-2.67,-2.79,0,*77
1497611271.52,37327,18.75,73882.8,6.97,-2.35,-2.35,0,*77
1497611272.73,37328,18.81,73878.5,6.93,-1.87,-1.79,0,*7D
1497611273.98,37329,18.81,73882.8,6.91,-1.25,-1.35,0,*7E
1497611275.23,37330,18.81,73882.8,6.89,-1.39,-1.43,0,*73
1497611276.47,37331,18.75,73880.0,6.87,-1.43,-1.51,0,*72
1497611277.65,37332,18.81,73882.5,6.85,-1.51,-1.63,0,*71
1497611278.89,37333,18.75,73884.3,6.81,-1.13,-1.17,0,*71
1497611280.14,37334,18.75,73886.5,6.81,-0.89,-1.01,0,*43
1497611281.4,37335,18.75,73886.5,6.81,-3.51,-3.67,0,*76
1497611282.58,37336,18.75,73876.8,6.75,-3.11,-3.19,0,*73
1497611283.83,37337,18.75,73864.0,6.71,-2.51,-2.67,0,*7B
1497611285.03,37338,18.75,73870.3,6.67,-3.15,-3.27,0,*77
1497611286.21,37339,18.75,73878.5,6.63,-2.83,-2.87,0,*77
1497611287.46,37340,18.75,73874.3,6.59,-2.59,-2.51,0,*7C
1497611288.69,37341,18.75,73874.3,6.59,-1.01,-0.97,0,*4B
1497611289.9,37342,18.75,73876.0,6.57,-0.57,-0.53,0,*7C
1497611291.14,37343,18.75,73864.5,6.53,-1.13,-1.21,0,*7C
1497611292.35,37344,18.75,73862.5,6.53,-0.57,-0.57,0,*7A
1497611293.59,37345,18.75,73848.5,6.53,0.41,0.55,0,*7E
1497611294.85,37346,18.75,73850.8,6.53,1.29,1.51,0,*77
1497611296.11,37347,18.75,73854.0,6.61,1.21,1.37,0,*7F
1497611297.36,37348,18.75,73864.0,6.61,1.59,1.67,0,*7A
1497611298.62,37349,18.81,73864.0,6.61,1.21,1.29,0,*7E
1497611299.85,37350,18.75,73868.5,6.63,1.43,1.63,0,*7E
1497611301.06,37351,18.75,73874.0,6.63,0.29,1.13,0,*45
1497611302.26,37352,18.75,73878.8,6.63,1.51,2.35,0,*7F
1497611303.52,37353,18.75,73876.8,6.65,2.05,2.81,0,*75
1497611304.77,37354,18.75,73880.3,6.69,1.59,2.39,0,*77
1497611305.97,37355,18.75,73874.3,6.67,0.55,1.41,0,*49
1497611307.2,37356,18.75,73876.8,6.67,0.91,1.67,0,*46
1497611308.38,37357,18.81,73878.5,6.67,-0.69,-0.07,0,*47
1497611309.58,37358,18.75,73870.0,6.63,-1.59,-1.01,0,*79
1497611310.8,37359,18.81,73872.5,6.59,-2.51,-1.63,0,*7E
1497611312.01,37360,18.75,73876.8,6.57,-0.65,-0.03,0,*48
1497611313.23,37361,18.75,73882.3,6.57,-0.19,0.33,0,*5C
1497611314.46,37362,18.75,73878.8,6.53,-0.37,0.29,0,*5C
1497611315.69,37363,18.75,73874.5,6.51,-0.81,-0.23,0,*75
1497611316.93,37364,18.75,73868.3,6.49,-1.47,-0.89,0,*40
1497611318.12,37365,18.75,73872.0,6.49,-1.29,-0.73,0,*4C
1497611319.33,37366,18.75,73874.3,6.45,-1.05,-0.45,0,*48
1497611320.55,37367,18.75,73868.3,6.43,-0.49,0.13,0,*58
1497611321.79,37368,18.75,73864.0,6.43,0.25,0.87,0,*7D
1497611323.01,37369,18.75,73866.8,6.43,1.41,2.01,0,*73
1497611324.27,37370,18.81,73866.5,6.43,1.97,2.69,0,*7E
1497611325.47,37371,18.75,73862.3,6.45,2.39,2.99,0,*71
1497611326.72,37372,18.75,73866.5,6.47,2.51,3.11,0,*7F
1497611327.96,37373,18.75,73864.0,6.49,2.09,2.81,0,*75
1497611329.22,37374,18.75,73866.3,6.51,2.43,3.15,0,*79